This is the latest recevied weather packets stored in our database for station/object KO6MEX-13. If no packets are shown the sender has not sent any weather packets the latest 10 day(s).
| Time | Temp. | Humidity | Pressure | Rain* | Wind** | Luminosity | Snow |
|---|---|---|---|---|---|---|---|
| 1777863709 | 13.89° C | 73% | 1018.2 hPa | 0 mm | - | 0 W/m² | - |
| 1777863406 | 14.44° C | 73% | 1017.9 hPa | 0 mm | - | 0 W/m² | - |
| 1777863103 | 14.44° C | 72% | 1017.9 hPa | 0 mm | - | 0 W/m² | - |
| 1777862800 | 14.44° C | 72% | 1017.8 hPa | 0 mm | - | 3 W/m² | - |
| 1777862496 | 14.44° C | 71% | 1017.7 hPa | 0 mm | - | 5 W/m² | - |
| 1777862193 | 14.44° C | 70% | 1017.9 hPa | 0 mm | - | 8 W/m² | - |
| 1777861889 | 15° C | 69% | 1017.8 hPa | 0 mm | - | 12 W/m² | - |
| 1777861586 | 15° C | 69% | 1017.8 hPa | 0 mm | - | 15 W/m² | - |
| 1777861282 | 15° C | 68% | 1017.5 hPa | 0 mm | - | 18 W/m² | - |
| 1777860980 | 15° C | 67% | 1017.8 hPa | 0 mm | - | 20 W/m² | - |
| 1777860676 | 15° C | 68% | 1017.8 hPa | 0 mm | - | 24 W/m² | - |
| 1777860373 | 15° C | 67% | 1017.8 hPa | 0 mm | - | 26 W/m² | - |
| 1777860069 | 15° C | 67% | 1017.5 hPa | 0 mm | - | 29 W/m² | - |
| 1777859766 | 15.56° C | 67% | 1017.8 hPa | 0 mm | - | 32 W/m² | - |
| 1777859462 | 15.56° C | 66% | 1017.7 hPa | 0 mm | - | 33 W/m² | - |
| 1777859158 | 15.56° C | 66% | 1017.7 hPa | 0 mm | - | 35 W/m² | - |
| 1777858855 | 16.11° C | 66% | 1017.7 hPa | 0 mm | - | 37 W/m² | - |
| 1777858553 | 16.11° C | 65% | 1017.4 hPa | 0 mm | - | 42 W/m² | - |
| 1777858249 | 16.11° C | 65% | 1017.5 hPa | 0 mm | - | 48 W/m² | - |
| 1777857947 | 16.11° C | 64% | 1017.6 hPa | 0 mm | - | 150 W/m² | - |
| 1777857645 | 16.11° C | 64% | 1017.5 hPa | 0 mm | - | 174 W/m² | - |
| 1777857342 | 16.67° C | 63% | 1017.3 hPa | 0 mm | - | 192 W/m² | - |
| 1777857038 | 16.67° C | 63% | 1017.5 hPa | 0 mm | - | 260 W/m² | - |
| 1777856733 | 16.11° C | 64% | 1017.5 hPa | 0 mm | - | 174 W/m² | - |
| 1777856430 | 16.67° C | 63% | 1017.4 hPa | 0 mm | - | 137 W/m² | - |
* Rain latest hour (hover to see other rain measurements)
** Current wind speed in m/s (hover to see current wind gust speed)